This demonstration page uses our WeatherBlox Daily Observations layout. Learn more.

Left ArrowRight Arrow

31.31129, -92.44514

Hourly Observations for December 15, 2015

Temp ( °F °C ) Dew Point ( °F °C ) Humidity (%) Winds ( mph kmh ) Pressure ( in mb ) Visibility ( mi km ) Precip ( " mm )
12:53 am 00:53 Clear 50 10 47 8.3 89 89 ESE 6 9 29.85 1011 10 16 0.00 0.00
1:53 am 01:53 Clear 48 8.9 46 7.8 93 93 ESE 5 7 29.84 1011 10 16 0.00 0.00
2:53 am 02:53 Clear 46 7.8 45 7.2 96 96 E 5 7 29.85 1011 10 16 0.00 0.00
3:53 am 03:53 Clear with Mist and Fog 47 8.3 46 7.8 97 97 ESE 3 6 29.85 1011 6 10 0.00 0.00
4:53 am 04:53 Clear 47 8.3 46 7.8 97 97 Calm 29.85 1011 8 13 0.00 0.00
5:53 am 05:53 Clear with Mist and Fog 46 7.8 45 7.2 96 96 Calm 29.86 1011 3 4 0.00 0.00
6:00 am 06:00 Clear with Mist and Fog 46 7.8 46 7.8 100 100 ESE 3 6 29.83 1010 4 6 0.00 0.00
6:53 am 06:53 Clear 45 7.2 45 7.2 100 100 ESE 5 7 29.86 1011 9 14 0.00 0.00
7:53 am 07:53 Sunny with Mist and Fog 49 9.4 49 9.4 100 100 Calm 29.88 1012 5 8 0.00 0.00
8:53 am 08:53 Sunny 55 12.8 52 11.1 90 90 SE 8 13 29.88 1012 9 14 0.00 0.00
9:53 am 09:53 Sunny 62 16.7 53 11.7 73 73 SE 8 13 29.89 1012 10 16 0.00 0.00
10:53 am 10:53 Sunny 68 20 54 12.2 61 61 SE 12 19 29.88 1012 10 16 0.00 0.00
11:53 am 11:53 Sunny 71 21.7 55 12.8 57 57 SE 14 22 29.84 1011 10 16 0.00 0.00
12:53 pm 12:53 Sunny 72 22.2 56 13.3 57 57 SE 14 22 29.82 1010 10 16 0.00 0.00
1:53 pm 13:53 Sunny 74 23.3 56 13.3 54 54 SSE 12 19 29.79 1009 10 16 0.00 0.00
2:53 pm 14:53 Sunny 74 23.3 56 13.3 54 54 S 10 17 29.78 1009 10 16 0.00 0.00
3:53 pm 15:53 Sunny 73 22.8 56 13.3 55 55 SSE 9 15 29.78 1009 10 16 0.00 0.00
4:53 pm 16:53 Sunny 69 20.6 57 13.9 66 66 SSE 7 11 29.78 1008 10 16 0.00 0.00
5:53 pm 17:53 Clear 63 17.2 55 12.8 76 76 SE 6 9 29.79 1009 10 16 0.00 0.00
6:53 pm 18:53 Cloudy 62 16.7 56 13.3 80 80 SE 6 9 29.80 1009 10 16 0.00 0.00
7:53 pm 19:53 Mostly Cloudy 61 16.1 55 12.8 81 81 ESE 6 9 29.82 1010 10 16 0.00 0.00
8:53 pm 20:53 Mostly Cloudy 61 16.1 54 12.2 78 78 ESE 6 9 29.83 1010 10 16 0.00 0.00
9:53 pm 21:53 Clear 61 16.1 52 11.1 72 72 SE 8 13 29.84 1010 10 16 0.00 0.00
10:53 pm 22:53 Mostly Clear 59 15 52 11.1 78 78 SE 5 7 29.85 1011 10 16 0.00 0.00
11:53 pm 23:53 Clear 59 15 53 11.7 81 81 ESE 13 20 29.82 1010 10 16 0.00 0.00

Powered by AerisWeather